Regional Weather Roundup
Issued by NWS

Home | Current Version | Previous Version | Graphics & Text | Print | Product List | Glossary On
Versions: 1 2 3 4 5 6 7 8 9 10 11 12 13 14 15 16 17 18 19 20 21 22 23 24 25 26 27 28 29 30 31 32 33 34 35 36 37 38 39 40 41 42 43 44 45 46 47 48 49 50
000
ASUS45 KPSR 190100
RWRAZ

ARIZONA REGIONAL HOURLY WEATHER ROUNDUP
NATIONAL WEATHER SERVICE PHOENIX AZ
600 PM MST SAT APR 18 2015

NOTE: FAIR INDICATES FEW OR NO CLOUDS BELOW 12,000 FEET WITH NO
SIGNIFICANT WEATHER AND/OR OBSTRUCTIONS TO VISIBILITY.

AZZ001>003-036-190200-
NORTHWEST ARIZONA

CITY           SKY/WX    TMP DP  RH WIND       PRES   REMARKS
KINGMAN        SUNNY     79   5   6 NW12      29.92S
$$

AZZ004>008-015-016-018-190200-
NORTH CENTRAL ARIZONA

CITY           SKY/WX    TMP DP  RH WIND       PRES   REMARKS
GRAND CANYON   MOSUNNY   62   8  12 VRB5G20   30.04F
WILLIAMS       SUNNY     63  12  14 NW10G17   30.11S
PRESCOTT       FAIR      70  14  11 W21       29.97S
FLAGSTAFF      NOT AVBL
PAYSON         MOSUNNY   68  18  14 SW12G20   29.99F
PAGE           PTSUNNY   76  21  12 N14G20    29.89S
$$

AZZ009>014-017-190200-
NORTHEAST ARIZONA

CITY           SKY/WX    TMP DP  RH WIND       PRES   REMARKS
WINSLOW        NOT AVBL
SAINT JOHNS    CLEAR     65  17  15 NW18      29.97S
WINDOW ROCK    CLEAR     59  17  19 NW15G26   30.01S
SHOW LOW       MOSUNNY   59  14  17 NW12G18   30.03S
$$

AZZ023-190200-
GREATER PHOENIX AREA

CITY           SKY/WX    TMP DP  RH WIND       PRES   REMARKS
PHOENIX        MOSUNNY   88  15   6 SW10      29.78F
GLENDALE       MOSUNNY   90  14   6 S12       29.80F
DEER VALLEY    SUNNY     85  12   6 SW12      29.80F
SCOTTSDALE     SUNNY     85  14   7 S7        29.82F
MESA-FALCON    SUNNY     84  14   7 SW8       29.82F
MESA-GATEWAY   SUNNY     84  19   9 W12G17    29.85S
$$

AZZ027-028-190200-
SOUTHWEST MARICOPA COUNTY AND PINAL COUNTY

CITY           SKY/WX    TMP DP  RH WIND       PRES   REMARKS
CASA GRANDE    SUNNY     84  23  10 W12       29.83F
$$

AZZ503-504-507>509-190200-
SOUTHEAST ARIZONA

CITY           SKY/WX    TMP DP  RH WIND       PRES   REMARKS
TUCSON         SUNNY     81  15   8 MISG      29.92S
RYAN FIELD       N/A     81  16   9 NW13      29.91S
NOGALES        SUNNY     74  17  11 NW6       29.97S
SAFFORD        CLEAR     76  18  11 W20G26    29.86F
$$

AZZ020-021-025-026-031-190200-
SOUTHWEST ARIZONA

CITY           SKY/WX    TMP DP  RH WIND       PRES   REMARKS
YUMA           SUNNY     90  22   8 W9        29.80F
$$

CAZ031-033-041-043-047-048-061-190200-
SOUTHERN CALIFORNIA

CITY           SKY/WX    TMP DP  RH WIND       PRES   REMARKS
DOWNTOWN L.A.  SUNNY     71  46  40 VRB3      29.92S
L.A. AIRPORT   SUNNY     65  56  72 SW13      29.93F
SAN DIEGO      SUNNY     70  54  56 NW7       29.95F
BURBANK        SUNNY     75  38  26 S7        29.91F
ONTARIO        SUNNY     79  34  19 SW16      29.91S
RIVERSIDE      SUNNY     79  32  18 W14G20    29.91S
PALM SPRINGS   SUNNY     93  23   8 NW15      29.79F
EL CENTRO NAS  SUNNY     92  28  10 SE8       29.77F
IMPERIAL       SUNNY     92  28  10 SE13      29.77F
BLYTHE         SUNNY     92  22   8 S16       29.77F
$$

NVZ020-UTZ003-190200-
SOUTHERN NEVADA-UTAH

CITY           SKY/WX    TMP DP  RH WIND       PRES   REMARKS
LAS VEGAS      NOT AVBL
SALT LAKE CITY MOSUNNY   66  29  24 NW7       29.97S
$$

NMZ009-TXZ055-190200-
NEW MEXICO-WEST TEXAS

CITY           SKY/WX    TMP DP  RH WIND       PRES   REMARKS
ALBUQUERQUE    PTCLDY    60  26  27 NW26G37   29.93R
EL PASO        PTCLDY    74  19  12 W18G24    29.86S
$$


........................KEY........................
SKY/WX - SKY CONDITION/WEATHER
TMP    - TEMPERATURE IN FAHRENHEIT
DP     - DEW POINT IN FAHRENHEIT
RH     - RELATIVE HUMIDITY IN PERCENT
WIND   - DIRECTION AND SPEED IN MILES PER HOUR (MPH)
VRB    - VARIABLE WIND DIRECTION
PRES   - MEAN SEA LEVEL PRESSURE IN INCHES OF MERCURY
         F - FALLING PRESSURE   R - RISING PRESSURE
         S - STEADY PRESSURE
VSB    - VISIBILITY IN MILES
HX     - HEAT INDEX IN FAHRENHEIT
WCI    - WIND CHILL INDEX IN FAHRENHEIT
TC     - TEMPERATURE IN CELSIUS WHICH IS ALSO KNOWN AS
         TEMPERATURE IN CENTIGRADE
AFB    - AIR FORCE BASE
         LUKE AFB IS LUKE AIR FORCE BASE
         DAVIS-MONTHAN IS DAVIS-MONTHAN AIR FORCE BASE
NAS    - NAVAL AIR STATION
         EL CENTRO NAS IS EL CENTRO NAVAL AIR STATION
N/A    - NOT AVAILABLE




USA.gov is the U.S. government's official web portal to all federal, state and local government web resources and services.